Regional Weather Roundup
Issued by NWS

Home | Current Version | Previous Version | Graphics & Text | Print | Product List | Glossary On
Versions: 1 2 3 4 5 6 7 8 9 10 11 12 13 14 15 16 17 18 19 20 21 22 23 24 25 26 27 28 29 30 31 32 33 34 35 36 37 38 39 40 41 42 43 44 45 46 47 48 49 50
000
ASUS43 KLOT 251103
RWRIL

ILLINOIS REGIONAL WEATHER ROUNDUP
NATIONAL WEATHER SERVICE CHICAGO/ROMEOVILLE IL
600 AM CDT WED MAY 25 2016

NOTE: "FAIR" INDICATES FEW OR NO CLOUDS BELOW 12,000 FEET WITH NO
SIGNIFICANT WEATHER AND/OR OBSTRUCTIONS TO VISIBILITY.

* THESE STATIONS ARE NOT UNDER NWS QUALITY CONTROL. THEY ALSO MAY NOT
  REPORT WEATHER SUCH AS PRECIPITATION OR FOG.

ILZ001-002-007-009-015-016-024-251200-
NORTHWEST ILLINOIS

CITY           SKY/WX    TMP DP  RH WIND       PRES   REMARKS
MOLINE         CLEAR     66  61  84 S7        29.95R
STERLING*      CLEAR     65  62  90 VRB3      29.98R
$$

ILZ003-004-008-010-011-017-018-251200-
NORTH CENTRAL ILLINOIS

CITY           SKY/WX    TMP DP  RH WIND       PRES   REMARKS
ROCKFORD       MOCLDY    63  59  87 CALM      29.98R
FREEPORT*      CLEAR     61  59  94 S9        29.99R
ROCHELLE*      CLEAR     62  59  91 S6        29.99R
$$

ILZ005-006-012>014-019>023-251200-
NORTHEAST ILLINOIS

CITY           SKY/WX    TMP DP  RH WIND       PRES   REMARKS
CHICAGO-OHARE  MOCLDY    64  60  87 S7        29.97S
CHICAGO-MIDWAY MOCLDY    70  59  68 VRB5      29.97F
AURORA         CLEAR     64  59  83 SE3       29.97R
LANSING*       CLEAR     63  57  80 CALM      29.99S
WAUKEGAN       PTCLDY    63  61  93 SW3       29.96S
DUPAGE AIRPORT CLEAR     63  58  83 S3        29.97R
WHEELING       CLEAR     65  60  84 SE3       29.97F
NORTHERLY ISL    N/A     66  57  72 S5          N/A
NORTHERLY ISL    N/A     66  57  72 S5          N/A
$$

LMZ740>746-251200-
SOUTHERN LAKE MICHIGAN

STATION/POSITION SKY/WX   TEMP    WIND        PRES    VSBY  WAVE
                          AIR SEA DIR/SP/G                  HT/PER
                          (F)     (DEG/KT/KT) (MB)    (MI)  (FT/S)
SOUTHERN BUOY              54 49  170/ 10/ 12 1014.8          1
WILMETTE HARBOR            63 56  190/  4/  6   N/A           1
HARRISON CRIB              72     190/ 11/ 11   N/A
BURNHAM HARBOR             63     140/  3/  8   N/A
CALUMET HARBOR             69     170/  4/  6 1014.7F
BURNS HARBOR               69     180/  7/ 12 1015.9F
MICHIGAN CITY              69     140/  9/ 12   N/A
MICHIGAN CITY 6N           63 57  160/  4/  6   N/A           1
ST. JOSEPH                 63 58  170/  6/  8   N/A           1
$$

ILZ025>027-034>036-040-047-049-050-058-095>099-251200-
WEST-CENTRAL ILLINOIS

CITY           SKY/WX    TMP DP  RH WIND       PRES   REMARKS
QUINCY         CLOUDY    64  61  90 S10       29.95S
MACOMB*        MOCLDY    63  61  95 S7        29.99R
PITTSFIELD*    MOCLDY    63  62  94 S6        29.99S
$$

ILZ028>032-037-038-041>044-048-051>054-059>061-251200-
CENTRAL ILLINOIS

CITY           SKY/WX    TMP DP  RH WIND       PRES   REMARKS
BLOOMINGTON    CLEAR     63  63 100 S10       30.03R
DECATUR        CLOUDY    63  61  93 S7        30.03R
PEORIA         CLEAR     64  61  90 S8        30.00R
SPRINGFIELD    CLEAR     64  62  93 S10       30.02R
TAYLORVILLE    NOT AVBL
$$

ILZ033-039-045-046-055>057-062-063-251200-
EAST-CENTRAL ILLINOIS

CITY           SKY/WX    TMP DP  RH WIND       PRES   REMARKS
CHAMPAIGN      CLOUDY    62  59  90 S8        30.03R
MATTOON        CLOUDY    64  61  90 S6        30.02R
$$

ILZ079-100>102-251200-
SOUTHWEST ILLINOIS

CITY           SKY/WX    TMP DP  RH WIND       PRES   REMARKS
CAHOKIA*       PTCLDY    63  60  90 SE6       30.03R
SPARTA*        MOCLDY    63  61  94 S3        30.06R
$$

ILZ064>066-069>071-074>076-080>082-084>086-088>090-092>094-251200-
SOUTH-CENTRAL ILLINOIS

CITY           SKY/WX    TMP DP  RH WIND       PRES   REMARKS
CARBONDALE     MOCLDY    63  61  93 CALM      30.06R
MT. VERNON     CLOUDY    61  55  82 CALM      30.06R
SALEM*         CLEAR     63  61  93 S3        30.05R FOG
$$

ILZ067-068-072-073-078-083-087-091-251200-
SOUTHEAST ILLINOIS

CITY           SKY/WX    TMP DP  RH WIND       PRES   REMARKS
LAWRENCEVILLE  CLEAR     63  60  90 CALM      30.05R FOG
FLORA*         CLOUDY    63  62  97 CALM      30.05R FOG
HARRISBURG*    CLOUDY    63  63  98 CALM      30.06R FOG
ROBINSON*      CLEAR     60  58  96 S5        30.06R
$$

ABBREVIATIONS USED IN REMARKS
   TC - TEMPERATURE IN CELSIUS
  WCI - WIND CHILL INDEX
   HX - HEAT INDEX
  VSB - VISIBILITY
$$





USA.gov is the U.S. government's official web portal to all federal, state and local government web resources and services.